Flag for Germany Weather past 2 weeks in Bergheim, North Rhine-Westphalia, Germany

Now
54 °F

Passing clouds.


Feels Like: 49 °F
Forecast: 46 / 53 °F
Wind: 17 mph from Southwest

Location: Noervenich

Current Time: Dec 22, 2014 at 9:56:01 PM

Latest Report: Dec 22, 2014 at 9:20 PM


Visibility: N/A

Pressure: 30.09 "Hg

Humidity: 77%

Dew point: 46 °F

Location of BergheimLocation

Historic Weather in Bergheim — Graph

°F

Bergheim temperature yesterday

Maximum temperature yesterday: 48 °F (at 7:20 PM)
Minimum temperature yesterday: 39 °F (at 6:20 AM)
Average temperature yesterday: 45 °F

Past Weeks' High & Low Weather Summary

 TemperatureHumidityPressure
High55 °F (Dec 18, 3:20 PM)100% (Dec 9, 1:20 AM)30.42 "Hg (Dec 9, 1:20 AM)
Low32 °F (Dec 14, 4:20 AM)65% (Dec 10, 4:20 AM)29.45 "Hg (Dec 12, 2:04 PM)
Average43 °F84%29.97 "Hg
* Reported Dec 7 8:20 PM — Dec 22 8:20 PM, Bergheim, Weather by CustomWeather, © 2014

Note: Actual official high and low records may vary slightly from our data, if they occured in-between our weather recording intervals... More about our weather records

Advertising

Bergheim weather history for previous 24 hours

 ConditionsComfort  
Time TempWeatherWind HumidityBarometerVisibility
8:20 PM
Dec 22
54 °FPassing clouds.18 mph77%30.09 "HgN/A
7:20 PM54 °FPassing clouds.18 mph77%30.09 "HgN/A
6:20 PM54 °FPassing clouds.20 mph77%30.09 "HgN/A
5:20 PM52 °FPassing clouds.16 mph82%30.09 "HgN/A
4:20 PM52 °FPartly sunny.15 mph82%30.09 "HgN/A
3:20 PM52 °FLight rain. Partly sunny.24 mph77%30.09 "HgN/A
2:20 PM52 °FPartly sunny.21 mph77%30.07 "HgN/A
1:20 PM54 °FPartly sunny.23 mph72%30.07 "HgN/A
12:20 PM52 °FBroken clouds.13 mph77%30.09 "HgN/A
11:20 AM50 °FBroken clouds.13 mph76%30.12 "HgN/A
10:20 AM50 °FBroken clouds.13 mph76%30.15 "HgN/A
9:20 AM48 °FBroken clouds.9 mph82%30.12 "HgN/A
8:20 AM48 °FPassing clouds.12 mph82%30.12 "HgN/A
7:20 AM48 °FPartly cloudy.17 mph82%30.12 "HgN/A
6:20 AM48 °FPartly cloudy.21 mph76%30.12 "HgN/A
5:20 AM48 °FPartly cloudy.22 mph82%30.12 "HgN/A
4:20 AM48 °FPartly cloudy.24 mph82%30.12 "HgN/A
3:20 AM48 °FPassing clouds.21 mph82%30.15 "HgN/A
2:20 AM48 °FPartly cloudy.18 mph82%30.18 "HgN/A
1:20 AM48 °FPassing clouds.16 mph76%30.18 "HgN/A
12:20 AM48 °FPassing clouds.16 mph76%30.21 "HgN/A
11:20 PM
Dec 21
46 °FPartly cloudy.15 mph82%30.24 "HgN/A
10:20 PM48 °FPassing clouds.10 mph76%30.24 "HgN/A
9:20 PM48 °FPassing clouds.9 mph76%30.24 "HgN/A
Weather by CustomWeather, © 2014

See weather overviewHow to use our weather pages